Orlando International, FL

2:58 PM EST on November 21, 2017 (GMT -0500)
Orlando International

Weather History for KMCO - April, 2013

Change the Weather History Date:

Monday, April 29, 2013

  Actual Average Record
Temperature  
Mean Temperature 75 °F 74 °F  
Max Temperature 86 °F 85 °F 96 °F (1906)
Min Temperature 64 °F 62 °F 42 °F (1928)
Degree Days  
Heating Degree Days 0 0  
Month to date heating degree days 0 11  
Since 1 July heating degree days 461 569  
Cooling Degree Days 10 9  
Month to date cooling degree days 273 191  
Year to date cooling degree days 524 413  
Growing Degree Days 25 (Base 50)    
Moisture  
Dew Point 65 °F    
Average Humidity 72    
Maximum Humidity 100    
Minimum Humidity 44    
Precipitation  
Precipitation 0.47 in 0.07 in 1.01 in (1982)
Month to date precipitation 3.13 2.61  
Year to date precipitation 5.31 11.11  
Sea Level Pressure  
Sea Level Pressure 29.99 in    
Wind  
Wind Speed 8 mph (SSE)    
Max Wind Speed 22 mph    
Max Gust Speed 26 mph    
Visibility 10 miles    
Events Rain , Thunderstorm    
T = Trace of Precipitation, MM = Missing Value Source: NWS Daily Summary

Daily Weather History Graph

Daily Weather History Graph

Search for Another Location

Airport or City:

Trip Planner

Search our weather history database for the weather conditions in past years. The results will help you decide how hot, cold, wet, or windy it might be!

Date:

Astronomy

Apr. 29, 2013 Rise Set
Actual Time 6:46 AM EDT 7:59 PM EDT
Civil Twilight 6:21 AM EDT 8:24 PM EDT
Nautical Twilight 5:52 AM EDT 8:53 PM EDT
Astronomical Twilight 5:21 AM EDT 9:24 PM EDT
Moon No Moon Rise 10:13 AM EDT (4/29)
Length of Visible Light 14h 02m
Length of Day
13h 13m
Waning Gibbous, 80% of the Moon is Illuminated
Apr 29
Waning Gibbous
May 2
Last Quarter
May 9
New
May 18
First Quarter
May 25
Full

Hourly Weather History & Observations

Time (EDT) Temp. Heat Index Dew Point Humidity Pressure Visibility Wind Dir Wind Speed Gust Speed Precip Events Conditions
12:53 AM 70.0 °F - 63.0 °F 78% 30.05 in 10.0 mi SE 13.8 mph - N/A   Clear
1:53 AM 69.1 °F - 63.0 °F 81% 30.04 in 10.0 mi SE 9.2 mph - N/A   Clear
2:53 AM 69.1 °F - 63.0 °F 81% 30.02 in 10.0 mi SE 6.9 mph - N/A   Partly Cloudy
3:53 AM 68.0 °F - 63.0 °F 84% 30.01 in 10.0 mi ESE 8.1 mph - N/A   Partly Cloudy
4:53 AM 68.0 °F - 63.0 °F 84% 30.00 in 10.0 mi SE 6.9 mph - N/A   Partly Cloudy
5:53 AM 64.9 °F - 63.0 °F 93% 30.02 in 10.0 mi Calm Calm - N/A   Scattered Clouds
6:53 AM 64.0 °F - 62.1 °F 93% 30.03 in 10.0 mi Calm Calm - N/A   Scattered Clouds
7:53 AM 70.0 °F - 66.0 °F 87% 30.04 in 10.0 mi Calm Calm - N/A   Mostly Cloudy
8:53 AM 73.0 °F - 66.0 °F 79% 30.04 in 10.0 mi SE 6.9 mph - N/A   Mostly Cloudy
9:53 AM 78.1 °F - 64.0 °F 62% 30.04 in 10.0 mi SSE 16.1 mph 20.7 mph N/A   Mostly Cloudy
10:53 AM 80.1 °F 81.2 °F 62.1 °F 54% 30.04 in 10.0 mi South 10.4 mph - N/A   Mostly Cloudy
11:53 AM 82.0 °F 83.1 °F 63.0 °F 52% 30.04 in 10.0 mi South 11.5 mph 17.3 mph N/A   Mostly Cloudy
12:53 PM 82.9 °F 83.2 °F 60.1 °F 46% 30.03 in 10.0 mi South 9.2 mph - N/A   Overcast
1:53 PM 82.9 °F 83.2 °F 60.1 °F 46% 30.00 in 10.0 mi SW 9.2 mph - N/A   Overcast
2:53 PM 84.0 °F 84.4 °F 61.0 °F 46% 29.98 in 10.0 mi South 5.8 mph - N/A   Mostly Cloudy
3:53 PM 84.0 °F 84.4 °F 61.0 °F 46% 29.94 in 10.0 mi South 8.1 mph - N/A   Mostly Cloudy
4:53 PM 84.9 °F 85.4 °F 62.1 °F 46% 29.92 in 10.0 mi SSE 8.1 mph - N/A   Mostly Cloudy
5:53 PM 84.9 °F 85.0 °F 61.0 °F 44% 29.92 in 10.0 mi South 6.9 mph - N/A   Mostly Cloudy
6:53 PM 81.0 °F 83.8 °F 68.0 °F 65% 29.92 in 10.0 mi ESE 12.7 mph - N/A   Overcast
7:10 PM 80.6 °F 83.2 °F 68.0 °F 65% 29.92 in 10.0 mi East 11.5 mph - N/A Thunderstorm Thunderstorm
7:53 PM 73.9 °F - 71.1 °F 91% 29.93 in 10.0 mi SSE 21.9 mph 26.5 mph 0.15 in Rain , Thunderstorm Light Thunderstorms and Rain
8:11 PM 71.6 °F - 69.8 °F 94% 29.96 in 6.0 mi SE 10.4 mph - 0.01 in Rain , Thunderstorm Thunderstorms and Rain
8:53 PM 70.0 °F - 70.0 °F 100% 29.96 in 10.0 mi SSE 4.6 mph - 0.28 in Rain , Thunderstorm Light Thunderstorms and Rain
9:19 PM 69.8 °F - 69.8 °F 100% 29.97 in 10.0 mi ESE 5.8 mph - 0.01 in Rain Light Rain
9:53 PM 71.1 °F - 69.1 °F 93% 29.98 in 10.0 mi SE 9.2 mph - 0.01 in Rain Light Rain
10:21 PM 69.8 °F - 69.8 °F 100% 30.00 in 10.0 mi West 3.5 mph - 0.00 in Rain , Thunderstorm Light Thunderstorms and Rain
10:44 PM 69.8 °F - 68.0 °F 94% 29.98 in 8.0 mi NW 5.8 mph - 0.03 in Rain Light Rain
10:53 PM 69.1 °F - 68.0 °F 96% 29.99 in 10.0 mi WSW 3.5 mph - 0.03 in   Mostly Cloudy
11:53 PM 69.1 °F - 68.0 °F 96% 29.99 in 10.0 mi SE 5.8 mph - N/A   Scattered Clouds